Retour au catalogue

STARLINK-33614

ActifCommunicationsVLEO
NORAD 63372·PAYLOAD·🇺🇸 United States

Lancé Mar 26, 2025 depuis Vandenberg Space Force Base

Loading…

Prochains Passages (prochaines 24 heures)

TLE

FraisSource: CelesTrak SupGP

Époque: Sep 15, 2026, 02:26 UTC

1 63372C 25063K   26258.10187500 -.00034675  00000+0 -10243-2 0  2588
2 63372  53.1569 247.1506 0001393  87.9007  33.2355 15.34412602    14

Suivez STARLINK-33614 en temps réel avec AllMySat

Download on the App Store